Lid_Strength_Index
4 3 2 1 1 1 1 1 0 0 0 1 1 1 2 1 1 0 -0 -0 -0 -0 -0 -0 -0 -0 0 1 -0 0 1 1 0 1 2 1 0 0 0 -0 -0 -1 -1
5 4 2 2 1 1 1 1 0 0 1 1 1 1 1 1 1 0 -0 -0 -0 -0 -0 -0 1 0 0 0 0 0 1 1 0 3 3 4 3 1 0 0 0 0 -0
5 3 3 2 1 1 1 1 0 1 1 0 1 1 1 1 1 1 1 0 -0 -0 -0 0 1 -0 0 1 0 0 1 2 1 1 2 4 5 2 1 1 0 -0 0
5 4 2 2 2 2 1 0 1 1 1 0 1 1 2 3 2 1 1 0 -0 -0 0 0 -0 -0 -0 0 0 0 1 1 3 2 1 0 1 4 5 1 1 0 1
5 5 4 3 2 1 1 1 1 1 1 1 1 2 2 2 1 1 1 0 0 -0 0 -0 -0 -0 0 0 -0 0 1 1 1 2 2 2 1 1 2 4 3 2 0
5 5 4 4 3 2 1 2 2 1 1 1 1 1 2 2 2 2 2 1 1 0 -0 -0 -0 -0 -0 0 0 -0 0 1 1 1 1 2 3 3 3 3 3 4 2
5 5 4 4 3 2 2 2 2 2 1 1 1 1 1 1 2 2 2 1 1 1 0 -0 -0 0 -0 -0 -0 -0 0 0 1 1 1 1 1 1 1 2 3 4 3
4 4 4 4 3 2 3 2 2 2 2 1 1 1 1 1 1 1 1 1 1 1 -0 -0 -0 -0 -0 -0 -0 0 0 0 1 1 1 1 1 1 1 2 3 5 4
4 4 3 3 3 3 3 2 2 2 2 1 1 1 1 1 1 1 0 1 0 0 0 -0 0 -0 -0 -0 -0 0 0 0 0 1 0 1 1 0 0 1 1 2 6
4 4 4 4 3 3 2 2 2 2 2 1 1 1 1 1 1 1 1 0 0 0 0 0 0 -0 -0 -0 -0 0 0 0 1 1 1 1 0 0 0 1 1 0 3
5 5 4 4 3 3 3 2 2 2 2 1 1 1 1 1 1 1 1 0 0 0 0 0 0 0 0 -0 0 0 0 1 1 1 1 1 0 1 1 1 1 1 1
4 5 5 4 4 3 3 3 2 2 2 1 1 1 1 1 1 1 0 0 0 0 0 0 0 0 0 0 0 1 1 1 2 1 1 1 1 1 1 1 1 1 1
4 5 5 5 4 3 3 3 2 2 2 1 1 1 1 1 1 1 0 0 0 0 0 0 1 1 0 0 0 0 1 1 1 1 1 1 1 1 1 1 1 1 1
5 5 5 5 4 3 3 3 2 2 2 1 2 2 1 1 1 1 0 0 0 0 0 0 0 0 0 0 0 0 1 1 1 1 1 1 1 1 1 1 1 1 1
5 5 5 5 4 3 3 2 2 2 1 2 2 2 1 1 1 1 1 0 0 0 0 0 0 0 0 0 0 0 1 1 1 1 1 1 1 2 1 1 1 1 2
5 5 5 5 4 3 3 3 2 2 1 2 2 1 1 1 1 1 1 1 1 0 0 1 1 1 1 9 8 3 1 1 1 2 1 1 2 2 4 3 4 1 1
5 5 5 4 4 3 3 3 2 1 2 2 2 2 1 1 1 1 1 1 1 1 1 1 1 1 0 9 9 7 0 1 1 1 2 2 2 2 1 5 5 5 5
5 5 4 4 3 2 2 2 2 2 2 2 2 2 1 2 1 1 1 1 1 1 1 1 1 1 1 10 9 7 0 1 1 1 1 2 2 2 2 1 1 1 0
4 4 3 3 3 3 2 2 2 2 2 2 2 2 1 2 1 2 1 1 1 1 1 1 1 1 2 10 10 4 1 1 1 1 1 1 3 8 7 1 2 1 2
3 3 3 3 3 2 2 2 2 2 2 2 2 1 1 1 2 1 1 1 1 1 1 1 1 5 2 10 9 3 1 2 2 2 3 7 5 10 8 2 1 3 3
3 3 3 3 3 2 2 3 2 3 2 1 1 1 1 1 1 1 1 1 1 1 1 1 1 2 3 4 10 7 1 1 2 3 4 6 11 10 9 6 2 3 3
3 3 3 3 2 2 2 3 3 2 1 1 1 1 1 1 1 1 1 1 1 2 2 2 2 2 2 8 9 9 7 5 2 4 5 8 11 11 10 7 10 9 6
3 3 3 3 2 2 2 3 2 1 1 1 2 1 1 1 1 1 1 2 2 2 2 2 2 2 2 4 11 10 9 8 3 4 8 12 12 12 11 11 10 8 3
4 3 3 3 3 2 2 2 2 1 1 2 2 1 2 2 1 1 1 2 2 2 2 2 3 2 2 2 2 3 4 9 7 9 8 8 8 8 8 7 5 3 2
3 3 3 3 3 2 2 1 1 1 2 2 2 2 2 2 2 1 1 1 1 2 2 2 2 2 3 2 4 4 2 2 6 6 4 4 5 5 4 3 3 3 3
3 3 3 3 3 2 2 2 1 1 2 2 2 2 2 2 2 2 2 12 9 10 9 8 4 1 6 10 10 10 11 11 10 4 4 4 4 4 4 4 3 3 4